Regional Weather Roundup
Issued by NWS Boston, MA

Home | Current Version | Previous Version | Text Only | Print | Product List | Glossary On
Versions: 1 2 3 4 5 6 7 8 9 10 11 12 13 14 15 16 17 18 19 20 21 22 23 24 25 26 27 28 29 30 31 32 33 34 35 36 37 38 39 40 41 42 43 44 45 46 47 48 49 50
000
ASUS41 KBOX 230510
RWRBOX

REGIONAL WEATHER ROUNDUP
NATIONAL WEATHER SERVICE TAUNTON MA
100 AM EDT TUE SEP 23 2014

NOTE:  "FAIR" INDICATES FEW OR NO CLOUDS BELOW 12,000 FEET WITH NO
SIGNIFICANT WEATHER AND/OR OBSTRUCTIONS TO VISIBILITY.  THE FOLLOWING
OBSERVATION LOCATIONS DO NOT REPORT PRESENT WEATHER...PROVINCETOWN...
SMITHFIELD...BLOCK ISLAND...KEENE...AND OXFORD.

MAZALL-230600-
EASTERN MASSACHUSETTS

CITY           SKY/WX    TMP DP  RH WIND       PRES   REMARKS
BOSTON         CLEAR     53  38  56 W8        30.11R
BEVERLY        CLEAR     47  36  65 W3        30.10R
LAWRENCE       CLEAR     49  38  65 W3        30.13R
BEDFORD        CLEAR     43  39  86 CALM      30.11R
BLUE HILL        N/A     47  38  71 W8        30.10R
NORWOOD        CLEAR     41  38  89 CALM      30.12R
MARSHFIELD     NOT AVBL
PLYMOUTH       CLEAR     49  37  63 NW6       30.12R
TAUNTON        CLEAR     47  39  74 CALM      30.12R
NEW BEDFORD    CLEAR     48  39  71 W5        30.11R
$$

MAZALL-230600-
CAPE COD AND THE ISLANDS

CITY           SKY/WX    TMP DP  RH WIND       PRES   REMARKS
FALMOUTH       NOT AVBL
HYANNIS        CLEAR     56  40  55 NW15G24   30.09R
CHATHAM        CLEAR     55  38  52 NW12G24   30.10R
PROVINCETOWN   CLEAR     55  39  54 NW17G26   30.10R
NANTUCKET      CLEAR     56  41  57 NW18G26   30.09R
MARTHAS VNYRD  CLEAR     53  39  59 NW10      30.11R
$$

MAZALL-230600-
CENTRAL AND WESTERN MASSACHUSETTS

CITY           SKY/WX    TMP DP  RH WIND       PRES   REMARKS
WORCESTER      CLEAR     46  37  71 NW7       30.11R
FITCHBURG      CLEAR     43  39  86 CALM      30.13R
ORANGE         CLEAR     41  38  89 CALM      30.12R
SPRINGFIELD    CLEAR     40  38  95 N1        30.13R
WESTFIELD      CLEAR     48  39  71 CALM      30.13R
NORTH ADAMS    CLEAR     47  40  76 VRB3      30.17R
PITTSFIELD     CLOUDY    45  40  82 CALM      30.16R
$$

RIZALL-230600-
RHODE ISLAND

CITY           SKY/WX    TMP DP  RH WIND       PRES   REMARKS
PROVIDENCE     CLEAR     49  40  71 W5        30.14R
NEWPORT        CLEAR     53  40  61 NW8       30.13R
BLOCK ISLAND   CLEAR     54  37  54 NW12G18   30.15R
WESTERLY       CLEAR     49  40  71 CALM      30.15R
$$

CTZALL-230600-
CONNECTICUT

CITY           SKY/WX    TMP DP  RH WIND       PRES   REMARKS
BRADLEY INTL   CLEAR     49  39  68 N3        30.13R
HARTFORD       CLEAR     52  39  61 VRB6      30.15R
BRIDGEPORT     CLEAR     52  42  69 W5        30.17R
DANBURY        CLEAR     43  39  86 CALM      30.18R
GROTON         CLEAR     50  40  68 W7        30.14R
NEW HAVEN      CLEAR     56  41  57 VRB7      30.17R
CHESTER        FAIR      46  41  81 CALM      30.17R
MERIDEN        CLEAR     44  40  85 CALM      30.16R
WILLIMANTIC    CLEAR     45  40  82 CALM      30.14R
OXFORD         CLEAR     45  36  70 NW3       30.17R
$$

MEZ002-015-021-024-NHZ003-005-008-011-012-014-VTZ005-008-230600-
NORTHERN NEW ENGLAND

CITY           SKY/WX    TMP DP  RH WIND       PRES   REMARKS
PORTLAND ME    CLEAR     49  34  56 SW5       30.06R
BANGOR ME      CLEAR     48  36  63 CALM      29.99R
CONCORD NH     CLEAR     40  37  89 CALM      30.09R
MANCHESTER NH  CLEAR     49  37  63 CALM      30.09R
NASHUA NH      CLEAR     46  39  76 CALM      30.12R
PORTSMOUTH NH  CLEAR     50  39  67 W7        30.08R
JAFFREY NH     CLEAR     49  35  58 MISG      30.11R
KEENE NH       CLEAR     39  30  70 SW3       30.13R
BURLINGTON VT  CLOUDY    51  37  58 W7        30.14R
MT. WASHINGTON SNOWSHWR  25  25 100 NW54        N/A  VSB 1/16WCI   3
$$

NYZ052-076-230600-
EASTERN NEW YORK

CITY           SKY/WX    TMP DP  RH WIND       PRES   REMARKS
ALBANY         PTCLDY    44  40  85 CALM      30.18R
NEW YORK CITY  PTCLDY    57  40  52 NW12      30.18R
$$

ANZALL-230600-
MARINE OBSERVATIONS

STATION/POSITION TIME  TEMP    WIND        PRES    VSBY  WAVE
                       AIR SEA DIR/SP/G                  HT/PER
                 (UTC) (F)     (DEG/KT/KT) (MB)    (MI)  (FT/S)
BOSTON BUOY      0450   55 60  320/ 14/ 17 1019.3R         3/11
BUZZARDS BAY     0400          320/ 22/ 23 1020.0R
NANTUCKET SOUND  0450   57 67  330/ 19/ 23 1018.7R         3/ 4
MASS BAY-STELLWA 0404   56 61  310/ 16/ 19   N/A    1 7/8  4/11
ISLE OF SHOALS   0500   53     280/ 12/ 13 1018.4R
S OF BLOCK IS    0408      67                N/A           8/ 5
$$

......................KEY.........................
  SKY/WX - SKY CONDITION/PRESENT WEATHER
  TMP    - TEMPERATURE IN FAHRENHEIT
  DWPT   - DEWPOINT IN FAHRENHEIT
  RH     - RELATIVE HUMIDITY IN PERCENT
  WIND   - DIRECTION AND SPEED IN MPH
  PRES   - MEAN SEA LEVEL PRESSURE IN INCHES OF HG
  WCI    - WIND CHILL INDEX
  VSB    - VISIBILITY IN MILES
  HX     - HEAT INDEX
  TC     - TEMPERATURE IN CELSIUS
  VRB    - VARIABLE WIND DIRECTION
  N/A    - NOT AVAILABLE



USA.gov is the U.S. government's official web portal to all federal, state and local government web resources and services.